HISPASAT 30W-6

Last updated on Sun Apr 12 2026 00:02:55 GMT+0000 (Coordinated Universal Time)

1 43228U 18023A 26101.27197447 .00000000 00000+0 00000+0 0 9992 2 43228 0.0187 53.3063 0006112 337.6287 236.4829 1.00268244 29735
UTC large
Height (km)
Speed (km/s)
/
Latitude / Longitude
Inclination (degrees)
Orbital Period (minutes)
Azimuth
Elevation
Range (km)
Doppler Factor

Next 0 passes for location: London (51.5072 / 0.1276)

Sorry there are no passes over London.
HISPASAT 30W-6